This demonstration page uses our WeatherBlox Daily Observations layout. Learn more.

Left ArrowRight Arrow

34.74481, -87.66753

Hourly Observations for December 20, 2019

Temp ( °F °C ) Dew Point ( °F °C ) Humidity (%) Winds ( mph kmh ) Pressure ( in mb ) Visibility ( mi km ) Precip ( " mm )
12:53 am 00:53 Clear 29 -1.7 25 -3.9 85 85 Calm 30.43 1031 10 16 0.00 0.00
1:53 am 01:53 Clear 29 -1.7 25 -3.9 85 85 Calm 30.44 1031 10 16 0.00 0.00
2:53 am 02:53 Clear 29 -1.7 25 -3.9 85 85 Calm 30.45 1031 10 16 0.00 0.00
3:53 am 03:53 Clear 30 -1.1 26 -3.3 85 85 Calm 30.44 1031 10 16 0.00 0.00
4:53 am 04:53 Clear 30 -1.1 26 -3.3 85 85 Calm 30.46 1031 10 16 0.00 0.00
5:53 am 05:53 Clear 32 0 27 -2.8 82 82 Calm 30.48 1032 10 16 0.00 0.00
6:53 am 06:53 Clear 31 -0.6 27 -2.8 85 85 E 5 7 30.48 1032 10 16 0.00 0.00
7:53 am 07:53 Sunny 35 1.7 31 -0.6 85 85 Calm 30.50 1033 10 16 0.00 0.00
8:53 am 08:53 Sunny 39 3.9 32 0 76 76 ESE 3 6 30.52 1034 10 16 0.00 0.00
9:53 am 09:53 Sunny 44 6.7 32 0 63 63 E 6 9 30.52 1034 10 16 0.00 0.00
10:53 am 10:53 Sunny 47 8.3 30 -1.1 52 52 SE 3 6 30.51 1033 10 16 0.00 0.00
11:53 am 11:53 Sunny 52 11.1 30 -1.1 43 43 Calm 30.47 1032 10 16 0.00 0.00
12:53 pm 12:53 Sunny 53 11.7 30 -1.1 41 41 E 6 9 30.43 1030 10 16 0.00 0.00
1:53 pm 13:53 Sunny 55 12.8 28 -2.2 35 35 Calm 30.40 1030 10 16 0.00 0.00
2:53 pm 14:53 Sunny 56 13.3 29 -1.7 36 36 E 6 9 30.40 1029 10 16 0.00 0.00
3:53 pm 15:53 Sunny 52 11.1 31 -0.6 45 45 ESE 5 7 30.40 1030 10 16 0.00 0.00
4:53 pm 16:53 Clear 48 8.9 30 -1.1 50 50 E 5 7 30.40 1030 10 16 0.00 0.00
5:53 pm 17:53 Clear 47 8.3 31 -0.6 54 54 E 6 9 30.39 1029 10 16 0.00 0.00
6:53 pm 18:53 Clear 45 7.2 31 -0.6 58 58 E 3 6 30.44 1031 10 16 0.00 0.00
7:53 pm 19:53 Clear 43 6.1 34 1.1 71 71 E 5 7 30.44 1031 10 16 0.00 0.00
8:53 pm 20:53 Clear 43 6.1 34 1.1 71 71 E 3 6 30.42 1030 10 16 0.00 0.00
9:53 pm 21:53 Clear 46 7.8 33 0.6 61 61 E 6 9 30.42 1030 10 16 0.00 0.00
10:53 pm 22:53 Clear 45 7.2 32 0 61 61 ESE 3 6 30.42 1030 10 16 0.00 0.00
11:53 pm 23:53 Clear 46 7.8 31 -0.6 56 56 Calm 30.41 1030 10 16 0.00 0.00

Powered by AerisWeather